Time,TemperatureF,DewpointF,PressureIn,WindDirection,WindDirectionDegrees,WindSpeedMPH,WindSpeedGustMPH,Humidity,HourlyPrecipIn,Conditions,Clouds,dailyrainin,SoftwareType,DateUTC
2013-02-06 00:00:00,43.6,40.0,29.77,ESE,122,4.0,12.0,87,0.00,,,0.00,WeatherCatV1.13B119,2013-02-06 08:00:00,
2013-02-06 00:05:00,43.5,39.9,29.77,SE,136,3.0,3.0,87,0.00,,,0.00,WeatherCatV1.13B119,2013-02-06 08:05:00,
2013-02-06 00:10:00,43.5,39.6,29.77,South,174,1.0,12.0,86,0.00,,,0.00,WeatherCatV1.13B119,2013-02-06 08:10:00,
2013-02-06 00:15:00,43.6,39.7,29.78,SSE,158,2.0,5.0,86,0.00,,,0.00,WeatherCatV1.13B119,2013-02-06 08:15:00,
2013-02-06 00:20:00,43.5,39.6,29.78,SE,125,2.0,5.0,86,0.00,,,0.00,WeatherCatV1.13B119,2013-02-06 08:20:00,
2013-02-06 00:25:00,43.5,39.6,29.78,ESE,117,2.0,6.0,86,0.00,,,0.00,WeatherCatV1.13B119,2013-02-06 08:25:00,
2013-02-06 00:30:00,43.5,39.6,29.79,East,86,3.0,7.0,86,0.00,,,0.00,WeatherCatV1.13B119,2013-02-06 08:30:00,
2013-02-06 00:35:00,43.5,39.6,29.79,ESE,119,4.0,5.0,86,0.00,,,0.00,WeatherCatV1.13B119,2013-02-06 08:35:00,
2013-02-06 00:40:00,43.4,39.8,29.79,East,89,5.0,7.0,87,0.00,,,0.00,WeatherCatV1.13B119,2013-02-06 08:40:00,
2013-02-06 00:45:00,43.5,39.9,29.79,ESE,115,8.0,8.0,87,0.00,,,0.00,WeatherCatV1.13B119,2013-02-06 08:45:00,
2013-02-06 00:50:00,43.6,39.7,29.79,SE,136,4.0,7.0,86,0.00,,,0.00,WeatherCatV1.13B119,2013-02-06 08:50:00,
2013-02-06 00:55:00,43.6,39.7,29.79,NE,51,2.0,8.0,86,0.00,,,0.00,WeatherCatV1.13B119,2013-02-06 08:55:00,
2013-02-06 01:00:00,43.6,39.7,29.80,East,92,6.0,10.0,86,0.00,,,0.00,WeatherCatV1.13B119,2013-02-06 09:00:00,
2013-02-06 01:04:00,43.6,39.7,29.80,ESE,109,2.0,4.0,86,0.00,,,0.00,WeatherCatV1.13B119,2013-02-06 09:04:00,
2013-02-06 01:09:00,43.6,39.7,29.80,South,169,1.0,7.0,86,0.00,,,0.00,WeatherCatV1.13B119,2013-02-06 09:09:00,
2013-02-06 01:14:00,43.6,39.7,29.81,ESE,106,5.0,5.0,86,0.00,,,0.00,WeatherCatV1.13B119,2013-02-06 09:14:00,
2013-02-06 01:19:00,43.5,39.6,29.81,SSE,156,1.0,5.0,86,0.00,,,0.00,WeatherCatV1.13B119,2013-02-06 09:19:00,
2013-02-06 01:24:00,43.5,39.6,29.81,SE,145,1.0,1.0,86,0.00,,,0.00,WeatherCatV1.13B119,2013-02-06 09:24:00,
2013-02-06 01:29:00,43.4,39.5,29.81,ENE,63,6.0,6.0,86,0.00,,,0.00,WeatherCatV1.13B119,2013-02-06 09:29:00,
2013-02-06 01:34:00,43.5,39.6,29.81,ESE,117,3.0,13.0,86,0.00,,,0.00,WeatherCatV1.13B119,2013-02-06 09:34:00,
2013-02-06 01:39:00,43.6,39.4,29.81,ESE,104,2.0,6.0,85,0.00,,,0.00,WeatherCatV1.13B119,2013-02-06 09:39:00,
2013-02-06 01:44:00,43.6,39.4,29.81,SE,131,2.0,7.0,85,0.00,,,0.00,WeatherCatV1.13B119,2013-02-06 09:44:00,
2013-02-06 01:49:00,43.6,39.4,29.81,SSE,149,2.0,8.0,85,0.00,,,0.00,WeatherCatV1.13B119,2013-02-06 09:49:00,
2013-02-06 01:54:00,43.6,39.4,29.81,ESE,104,5.0,10.0,85,0.00,,,0.00,WeatherCatV1.13B119,2013-02-06 09:54:00,
2013-02-06 01:59:00,43.5,39.6,29.81,SE,127,0.0,2.0,86,0.00,,,0.00,WeatherCatV1.13B119,2013-02-06 09:59:00,
2013-02-06 02:04:00,43.5,39.6,29.81,East,84,0.0,1.0,86,0.00,,,0.00,WeatherCatV1.13B119,2013-02-06 10:04:00,
2013-02-06 02:09:00,43.4,39.5,29.82,ENE,75,0.0,1.0,86,0.00,,,0.00,WeatherCatV1.13B119,2013-02-06 10:09:00,
2013-02-06 02:14:00,43.3,39.4,29.82,ENE,67,4.0,7.0,86,0.00,,,0.00,WeatherCatV1.13B119,2013-02-06 10:14:00,
2013-02-06 02:19:00,43.2,39.3,29.82,East,91,4.0,8.0,86,0.00,,,0.00,WeatherCatV1.13B119,2013-02-06 10:19:00,
2013-02-06 02:24:00,43.1,39.2,29.82,ENE,74,3.0,5.0,86,0.00,,,0.00,WeatherCatV1.13B119,2013-02-06 10:24:00,
2013-02-06 02:29:00,43.1,39.2,29.82,East,81,3.0,5.0,86,0.00,,,0.00,WeatherCatV1.13B119,2013-02-06 10:29:00,
2013-02-06 02:34:00,43.1,39.2,29.82,ESE,110,2.0,8.0,86,0.00,,,0.00,WeatherCatV1.13B119,2013-02-06 10:34:00,
2013-02-06 02:39:00,43.1,39.5,29.82,SE,125,3.0,3.0,87,0.00,,,0.00,WeatherCatV1.13B119,2013-02-06 10:39:00,
2013-02-06 02:44:00,43.0,39.4,29.82,ESE,104,4.0,5.0,87,0.00,,,0.00,WeatherCatV1.13B119,2013-02-06 10:44:00,
2013-02-06 02:49:00,43.2,39.6,29.83,ESE,110,7.0,11.0,87,0.00,,,0.00,WeatherCatV1.13B119,2013-02-06 10:49:00,
2013-02-06 02:54:00,43.3,39.7,29.83,SE,131,2.0,3.0,87,0.00,,,0.00,WeatherCatV1.13B119,2013-02-06 10:54:00,
2013-02-06 02:59:00,43.2,39.6,29.83,SSE,147,1.0,4.0,87,0.00,,,0.00,WeatherCatV1.13B119,2013-02-06 10:59:00,
2013-02-06 03:04:00,43.2,39.6,29.83,ESE,117,3.0,7.0,87,0.00,,,0.00,WeatherCatV1.13B119,2013-02-06 11:04:00,
2013-02-06 03:09:00,43.2,39.6,29.84,ENE,78,1.0,3.0,87,0.00,,,0.00,WeatherCatV1.13B119,2013-02-06 11:09:00,
2013-02-06 03:14:00,43.1,39.5,29.84,SE,125,3.0,6.0,87,0.00,,,0.00,WeatherCatV1.13B119,2013-02-06 11:14:00,
2013-02-06 03:19:00,43.1,39.5,29.84,East,100,2.0,6.0,87,0.00,,,0.00,WeatherCatV1.13B119,2013-02-06 11:19:00,
2013-02-06 03:24:00,43.1,39.5,29.84,South,176,1.0,3.0,87,0.00,,,0.00,WeatherCatV1.13B119,2013-02-06 11:24:00,
2013-02-06 03:29:00,43.2,39.9,29.84,West,281,1.0,8.0,88,0.00,,,0.00,WeatherCatV1.13B119,2013-02-06 11:29:00,
2013-02-06 03:34:00,43.3,39.7,29.84,ESE,120,3.0,5.0,87,0.00,,,0.00,WeatherCatV1.13B119,2013-02-06 11:34:00,
2013-02-06 03:39:00,43.2,39.6,29.84,ESE,122,1.0,3.0,87,0.00,,,0.00,WeatherCatV1.13B119,2013-02-06 11:39:00,
2013-02-06 03:44:00,43.2,39.6,29.84,ENE,65,4.0,5.0,87,0.00,,,0.00,WeatherCatV1.13B119,2013-02-06 11:44:00,
2013-02-06 03:49:00,43.2,39.6,29.85,East,93,3.0,6.0,87,0.00,,,0.00,WeatherCatV1.13B119,2013-02-06 11:49:00,
2013-02-06 03:54:00,43.3,39.7,29.85,ESE,108,1.0,3.0,87,0.00,,,0.00,WeatherCatV1.13B119,2013-02-06 11:54:00,
2013-02-06 03:59:00,43.3,39.7,29.85,SE,125,2.0,6.0,87,0.00,,,0.00,WeatherCatV1.13B119,2013-02-06 11:59:00,
2013-02-06 04:04:00,43.3,39.7,29.85,ENE,68,2.0,4.0,87,0.00,,,0.00,WeatherCatV1.13B119,2013-02-06 12:04:00,
2013-02-06 04:09:00,43.4,39.8,29.85,ENE,60,4.0,6.0,87,0.00,,,0.00,WeatherCatV1.13B119,2013-02-06 12:09:00,
2013-02-06 04:14:00,43.4,39.5,29.85,East,96,2.0,6.0,86,0.00,,,0.00,WeatherCatV1.13B119,2013-02-06 12:14:00,
2013-02-06 04:19:00,43.4,39.5,29.85,ENE,70,0.0,2.0,86,0.00,,,0.00,WeatherCatV1.13B119,2013-02-06 12:19:00,
2013-02-06 04:24:00,43.4,39.8,29.85,ENE,64,3.0,4.0,87,0.00,,,0.00,WeatherCatV1.13B119,2013-02-06 12:24:00,
2013-02-06 04:29:00,43.2,39.6,29.85,ESE,120,1.0,2.0,87,0.00,,,0.00,WeatherCatV1.13B119,2013-02-06 12:29:00,
2013-02-06 04:34:00,43.1,39.5,29.85,ESE,121,3.0,5.0,87,0.00,,,0.00,WeatherCatV1.13B119,2013-02-06 12:34:00,
2013-02-06 04:39:00,43.0,39.4,29.85,SE,125,5.0,5.0,87,0.00,,,0.00,WeatherCatV1.13B119,2013-02-06 12:39:00,
2013-02-06 04:44:00,42.9,39.3,29.85,South,177,2.0,6.0,87,0.00,,,0.00,WeatherCatV1.13B119,2013-02-06 12:44:00,
2013-02-06 04:49:00,42.9,39.3,29.86,NE,53,2.0,10.0,87,0.00,,,0.00,WeatherCatV1.13B119,2013-02-06 12:49:00,
2013-02-06 04:54:00,43.0,39.4,29.85,SE,145,3.0,9.0,87,0.00,,,0.00,WeatherCatV1.13B119,2013-02-06 12:54:00,
2013-02-06 04:59:00,43.1,39.2,29.86,East,86,3.0,10.0,86,0.00,,,0.00,WeatherCatV1.13B119,2013-02-06 12:59:00,
2013-02-06 05:04:00,43.1,39.2,29.86,ESE,112,2.0,5.0,86,0.00,,,0.00,WeatherCatV1.13B119,2013-02-06 13:04:00,
2013-02-06 05:09:00,43.1,39.2,29.86,ESE,117,2.0,8.0,86,0.00,,,0.00,WeatherCatV1.13B119,2013-02-06 13:09:00,
2013-02-06 05:14:00,43.2,39.3,29.86,ENE,74,6.0,9.0,86,0.00,,,0.00,WeatherCatV1.13B119,2013-02-06 13:14:00,
2013-02-06 05:19:00,43.4,39.5,29.86,SE,140,3.0,8.0,86,0.00,,,0.00,WeatherCatV1.13B119,2013-02-06 13:19:00,
2013-02-06 05:24:00,43.4,39.2,29.86,ESE,112,2.0,7.0,85,0.00,,,0.00,WeatherCatV1.13B119,2013-02-06 13:24:00,
2013-02-06 05:29:00,43.3,39.4,29.86,ESE,120,8.0,8.0,86,0.00,,,0.00,WeatherCatV1.13B119,2013-02-06 13:29:00,
2013-02-06 05:34:00,43.2,39.3,29.86,NNE,32,0.0,8.0,86,0.00,,,0.00,WeatherCatV1.13B119,2013-02-06 13:34:00,
2013-02-06 05:39:00,43.2,39.3,29.86,East,89,7.0,7.0,86,0.00,,,0.00,WeatherCatV1.13B119,2013-02-06 13:39:00,
2013-02-06 05:44:00,43.2,39.3,29.86,SSE,158,4.0,13.0,86,0.00,,,0.00,WeatherCatV1.13B119,2013-02-06 13:44:00,
2013-02-06 05:49:00,43.2,39.3,29.87,ENE,61,6.0,12.0,86,0.00,,,0.00,WeatherCatV1.13B119,2013-02-06 13:49:00,
2013-02-06 05:54:00,43.2,39.3,29.87,ESE,105,6.0,9.0,86,0.00,,,0.00,WeatherCatV1.13B119,2013-02-06 13:54:00,
2013-02-06 05:59:00,43.3,39.4,29.87,ENE,63,9.0,9.0,86,0.00,,,0.00,WeatherCatV1.13B119,2013-02-06 13:59:00,
2013-02-06 06:04:00,43.3,39.4,29.87,SE,128,5.0,5.0,86,0.00,,,0.00,WeatherCatV1.13B119,2013-02-06 14:04:00,
2013-02-06 06:09:00,43.2,39.3,29.87,ESE,117,7.0,10.0,86,0.00,,,0.00,WeatherCatV1.13B119,2013-02-06 14:09:00,
2013-02-06 06:14:00,43.2,39.3,29.87,ENE,66,4.0,8.0,86,0.00,,,0.00,WeatherCatV1.13B119,2013-02-06 14:14:00,
2013-02-06 06:19:00,43.3,39.4,29.87,SSE,147,5.0,6.0,86,0.00,,,0.00,WeatherCatV1.13B119,2013-02-06 14:19:00,
2013-02-06 06:24:00,43.3,39.4,29.87,SSE,152,2.0,5.0,86,0.00,,,0.00,WeatherCatV1.13B119,2013-02-06 14:24:00,
2013-02-06 06:29:00,43.3,39.4,29.87,ESE,113,2.0,8.0,86,0.00,,,0.00,WeatherCatV1.13B119,2013-02-06 14:29:00,
2013-02-06 06:34:00,43.3,39.4,29.87,ESE,114,5.0,6.0,86,0.00,,,0.00,WeatherCatV1.13B119,2013-02-06 14:34:00,
2013-02-06 06:39:00,43.3,39.4,29.87,SSE,152,5.0,5.0,86,0.00,,,0.00,WeatherCatV1.13B119,2013-02-06 14:39:00,
2013-02-06 06:44:00,43.3,39.4,29.88,SE,144,2.0,7.0,86,0.00,,,0.00,WeatherCatV1.13B119,2013-02-06 14:44:00,
2013-02-06 06:49:00,43.3,39.4,29.88,ESE,115,3.0,8.0,86,0.00,,,0.00,WeatherCatV1.13B119,2013-02-06 14:49:00,
2013-02-06 06:54:00,43.3,39.7,29.88,SE,124,4.0,11.0,87,0.00,,,0.00,WeatherCatV1.13B119,2013-02-06 14:54:00,
2013-02-06 06:59:00,43.3,39.7,29.88,ENE,61,3.0,3.0,87,0.00,,,0.00,WeatherCatV1.13B119,2013-02-06 14:59:00,
2013-02-06 07:04:00,43.4,39.5,29.88,ESE,120,4.0,4.0,86,0.00,,,0.00,WeatherCatV1.13B119,2013-02-06 15:04:00,
2013-02-06 07:09:00,43.3,39.7,29.88,East,100,2.0,6.0,87,0.00,,,0.00,WeatherCatV1.13B119,2013-02-06 15:09:00,
2013-02-06 07:14:00,43.2,39.6,29.87,East,84,8.0,10.0,87,0.00,,,0.00,WeatherCatV1.13B119,2013-02-06 15:14:00,
2013-02-06 07:19:00,43.2,39.6,29.87,ENE,63,2.0,8.0,87,0.00,,,0.00,WeatherCatV1.13B119,2013-02-06 15:19:00,
2013-02-06 07:24:00,43.2,39.3,29.87,ENE,65,6.0,8.0,86,0.00,,,0.00,WeatherCatV1.13B119,2013-02-06 15:24:00,
2013-02-06 07:29:00,43.3,39.4,29.88,ESE,122,5.0,11.0,86,0.00,,,0.00,WeatherCatV1.13B119,2013-02-06 15:29:00,
2013-02-06 07:34:00,43.3,39.4,29.88,ESE,111,4.0,15.0,86,0.00,,,0.00,WeatherCatV1.13B119,2013-02-06 15:34:00,
2013-02-06 07:39:00,43.4,39.5,29.88,South,183,8.0,12.0,86,0.00,,,0.00,WeatherCatV1.13B119,2013-02-06 15:39:00,
2013-02-06 07:44:00,43.4,39.5,29.88,ESE,106,8.0,9.0,86,0.00,,,0.00,WeatherCatV1.13B119,2013-02-06 15:44:00,
2013-02-06 07:49:00,43.4,39.2,29.88,East,95,4.0,9.0,85,0.00,,,0.00,WeatherCatV1.13B119,2013-02-06 15:49:00,
2013-02-06 07:54:00,43.5,39.3,29.88,SE,131,6.0,12.0,85,0.00,,,0.00,WeatherCatV1.13B119,2013-02-06 15:54:00,
2013-02-06 07:59:00,43.5,39.3,29.88,SE,145,7.0,8.0,85,0.00,,,0.00,WeatherCatV1.13B119,2013-02-06 15:59:00,
2013-02-06 08:04:00,43.4,39.2,29.89,East,101,9.0,9.0,85,0.00,,,0.00,WeatherCatV1.13B119,2013-02-06 16:04:00,
2013-02-06 08:09:00,43.3,39.4,29.89,ENE,74,5.0,11.0,86,0.00,,,0.00,WeatherCatV1.13B119,2013-02-06 16:09:00,
2013-02-06 08:14:00,43.3,39.4,29.89,ESE,104,1.0,9.0,86,0.00,,,0.00,WeatherCatV1.13B119,2013-02-06 16:14:00,
2013-02-06 08:19:00,43.4,39.8,29.89,ESE,112,4.0,9.0,87,0.00,,,0.00,WeatherCatV1.13B119,2013-02-06 16:19:00,
2013-02-06 08:24:00,43.4,39.8,29.89,East,79,3.0,7.0,87,0.00,,,0.00,WeatherCatV1.13B119,2013-02-06 16:24:00,
2013-02-06 08:29:00,43.4,39.8,29.89,SSE,155,5.0,6.0,87,0.00,,,0.00,WeatherCatV1.13B119,2013-02-06 16:29:00,
2013-02-06 08:34:00,43.5,39.6,29.89,SE,126,2.0,13.0,86,0.00,,,0.00,WeatherCatV1.13B119,2013-02-06 16:34:00,
2013-02-06 08:39:00,43.5,39.6,29.89,SE,142,4.0,15.0,86,0.00,,,0.00,WeatherCatV1.13B119,2013-02-06 16:39:00,
2013-02-06 08:44:00,43.5,39.6,29.89,ENE,70,7.0,12.0,86,0.00,,,0.00,WeatherCatV1.13B119,2013-02-06 16:44:00,
2013-02-06 08:49:00,43.5,39.9,29.89,SE,136,4.0,8.0,87,0.00,,,0.00,WeatherCatV1.13B119,2013-02-06 16:49:00,
2013-02-06 08:54:00,43.5,39.9,29.89,SE,142,6.0,10.0,87,0.00,,,0.00,WeatherCatV1.13B119,2013-02-06 16:54:00,
2013-02-06 08:59:00,43.5,39.9,29.89,ESE,112,3.0,8.0,87,0.00,,,0.00,WeatherCatV1.13B119,2013-02-06 16:59:00,
2013-02-06 09:04:00,43.5,39.9,29.89,ESE,120,8.0,14.0,87,0.00,,,0.00,WeatherCatV1.13B119,2013-02-06 17:04:00,
2013-02-06 09:09:00,43.6,40.0,29.90,SE,142,6.0,13.0,87,0.00,,,0.00,WeatherCatV1.13B119,2013-02-06 17:09:00,
2013-02-06 09:14:00,43.6,40.0,29.90,ESE,120,5.0,12.0,87,0.00,,,0.00,WeatherCatV1.13B119,2013-02-06 17:14:00,
2013-02-06 09:19:00,43.6,40.0,29.90,ESE,113,5.0,13.0,87,0.00,,,0.00,WeatherCatV1.13B119,2013-02-06 17:19:00,
2013-02-06 09:24:00,43.7,40.1,29.90,SE,131,5.0,12.0,87,0.00,,,0.00,WeatherCatV1.13B119,2013-02-06 17:24:00,
2013-02-06 09:29:00,43.7,40.1,29.90,ENE,70,8.0,11.0,87,0.00,,,0.00,WeatherCatV1.13B119,2013-02-06 17:29:00,
2013-02-06 09:34:00,43.7,40.1,29.90,East,86,6.0,15.0,87,0.00,,,0.00,WeatherCatV1.13B119,2013-02-06 17:34:00,
2013-02-06 09:39:00,43.8,40.2,29.90,SSW,198,4.0,7.0,87,0.00,,,0.00,WeatherCatV1.13B119,2013-02-06 17:39:00,
2013-02-06 09:44:00,43.8,40.2,29.91,SSE,163,3.0,16.0,87,0.00,,,0.00,WeatherCatV1.13B119,2013-02-06 17:44:00,
2013-02-06 09:49:00,43.9,39.7,29.91,East,86,5.0,15.0,85,0.00,,,0.00,WeatherCatV1.13B119,2013-02-06 17:49:00,
2013-02-06 09:54:00,43.9,40.0,29.90,SE,129,7.0,17.0,86,0.00,,,0.00,WeatherCatV1.13B119,2013-02-06 17:54:00,
2013-02-06 09:59:00,43.9,40.0,29.91,East,101,4.0,11.0,86,0.00,,,0.00,WeatherCatV1.13B119,2013-02-06 17:59:00,
2013-02-06 10:04:00,43.9,39.7,29.91,SSE,148,6.0,20.0,85,0.00,,,0.00,WeatherCatV1.13B119,2013-02-06 18:04:00,
2013-02-06 10:09:00,43.9,40.0,29.91,ESE,122,6.0,15.0,86,0.00,,,0.00,WeatherCatV1.13B119,2013-02-06 18:09:00,
2013-02-06 10:14:00,43.9,40.0,29.90,SE,127,5.0,12.0,86,0.00,,,0.00,WeatherCatV1.13B119,2013-02-06 18:14:00,
2013-02-06 10:19:00,43.8,39.9,29.90,ENE,66,6.0,12.0,86,0.00,,,0.00,WeatherCatV1.13B119,2013-02-06 18:19:00,
2013-02-06 10:24:00,43.9,40.0,29.91,East,89,3.0,7.0,86,0.00,,,0.00,WeatherCatV1.13B119,2013-02-06 18:24:00,
2013-02-06 10:29:00,43.9,40.0,29.91,SSE,148,11.0,17.0,86,0.00,,,0.00,WeatherCatV1.13B119,2013-02-06 18:29:00,
2013-02-06 10:34:00,44.0,39.8,29.90,ESE,120,5.0,11.0,85,0.00,,,0.00,WeatherCatV1.13B119,2013-02-06 18:34:00,
2013-02-06 10:39:00,43.9,39.7,29.90,SSE,166,2.0,11.0,85,0.00,,,0.00,WeatherCatV1.13B119,2013-02-06 18:39:00,
2013-02-06 10:44:00,44.0,39.8,29.90,East,98,2.0,9.0,85,0.00,,,0.00,WeatherCatV1.13B119,2013-02-06 18:44:00,
2013-02-06 10:49:00,44.0,39.8,29.90,ENE,66,8.0,10.0,85,0.00,,,0.00,WeatherCatV1.13B119,2013-02-06 18:49:00,
2013-02-06 10:54:00,44.1,39.6,29.90,ESE,108,6.0,10.0,84,0.00,,,0.00,WeatherCatV1.13B119,2013-02-06 18:54:00,
2013-02-06 10:59:00,44.1,39.6,29.90,ESE,114,5.0,14.0,84,0.00,,,0.00,WeatherCatV1.13B119,2013-02-06 18:59:00,
2013-02-06 11:04:00,44.2,39.4,29.90,ESE,116,8.0,9.0,83,0.00,,,0.00,WeatherCatV1.13B119,2013-02-06 19:04:00,
2013-02-06 11:09:00,44.3,39.5,29.90,ESE,122,6.0,8.0,83,0.00,,,0.00,WeatherCatV1.13B119,2013-02-06 19:09:00,
2013-02-06 11:14:00,44.3,39.5,29.90,East,80,3.0,9.0,83,0.00,,,0.00,WeatherCatV1.13B119,2013-02-06 19:14:00,
2013-02-06 11:19:00,44.4,39.3,29.90,SE,133,5.0,16.0,82,0.00,,,0.00,WeatherCatV1.13B119,2013-02-06 19:19:00,
2013-02-06 11:24:00,44.4,39.3,29.90,South,176,7.0,11.0,82,0.00,,,0.00,WeatherCatV1.13B119,2013-02-06 19:24:00,
2013-02-06 11:29:00,44.4,39.6,29.90,SE,132,7.0,16.0,83,0.00,,,0.00,WeatherCatV1.13B119,2013-02-06 19:29:00,
2013-02-06 11:34:00,44.4,39.3,29.89,East,86,7.0,11.0,82,0.00,,,0.00,WeatherCatV1.13B119,2013-02-06 19:34:00,
2013-02-06 11:39:00,44.4,39.3,29.89,East,97,2.0,13.0,82,0.00,,,0.00,WeatherCatV1.13B119,2013-02-06 19:39:00,
2013-02-06 11:44:00,44.5,39.4,29.89,South,175,3.0,4.0,82,0.00,,,0.00,WeatherCatV1.13B119,2013-02-06 19:44:00,
2013-02-06 11:49:00,44.6,39.1,29.89,South,174,3.0,6.0,81,0.00,,,0.00,WeatherCatV1.13B119,2013-02-06 19:49:00,
2013-02-06 11:54:00,44.7,38.9,29.89,SE,125,3.0,9.0,80,0.00,,,0.00,WeatherCatV1.13B119,2013-02-06 19:54:00,
2013-02-06 11:59:00,44.8,39.0,29.89,SSE,166,2.0,4.0,80,0.00,,,0.00,WeatherCatV1.13B119,2013-02-06 19:59:00,
2013-02-06 12:04:00,44.7,39.9,29.89,SE,143,2.0,4.0,83,0.00,,,0.00,WeatherCatV1.13B119,2013-02-06 20:04:00,
2013-02-06 12:09:00,44.6,40.1,29.89,WSW,248,8.0,8.0,84,0.00,,,0.00,WeatherCatV1.13B119,2013-02-06 20:09:00,
2013-02-06 12:14:00,44.5,40.0,29.89,ESE,122,6.0,9.0,84,0.00,,,0.00,WeatherCatV1.13B119,2013-02-06 20:14:00,
2013-02-06 12:19:00,44.5,40.3,29.89,ESE,113,6.0,11.0,85,0.00,,,0.00,WeatherCatV1.13B119,2013-02-06 20:19:00,
2013-02-06 12:24:00,44.3,40.1,29.88,East,85,7.0,13.0,85,0.00,,,0.00,WeatherCatV1.13B119,2013-02-06 20:24:00,
2013-02-06 12:29:00,44.2,40.3,29.88,East,100,3.0,16.0,86,0.00,,,0.00,WeatherCatV1.13B119,2013-02-06 20:29:00,
2013-02-06 12:34:00,44.1,40.2,29.88,ESE,123,8.0,15.0,86,0.00,,,0.00,WeatherCatV1.13B119,2013-02-06 20:34:00,
2013-02-06 12:39:00,43.9,40.3,29.88,SE,139,5.0,11.0,87,0.00,,,0.00,WeatherCatV1.13B119,2013-02-06 20:39:00,
2013-02-06 12:44:00,43.9,40.3,29.88,ESE,105,4.0,9.0,87,0.00,,,0.00,WeatherCatV1.13B119,2013-02-06 20:44:00,
2013-02-06 12:49:00,43.8,40.5,29.88,SSE,156,7.0,19.0,88,0.00,,,0.00,WeatherCatV1.13B119,2013-02-06 20:49:00,
2013-02-06 12:54:00,43.7,40.4,29.88,SE,136,1.0,7.0,88,0.00,,,0.00,WeatherCatV1.13B119,2013-02-06 20:54:00,
2013-02-06 12:59:00,43.7,40.4,29.88,SE,131,6.0,7.0,88,0.00,,,0.00,WeatherCatV1.13B119,2013-02-06 20:59:00,
2013-02-06 13:04:00,43.7,40.4,29.88,SSE,152,2.0,5.0,88,0.00,,,0.00,WeatherCatV1.13B119,2013-02-06 21:04:00,
2013-02-06 13:09:00,43.7,40.4,29.88,SSE,148,1.0,12.0,88,0.00,,,0.00,WeatherCatV1.13B119,2013-02-06 21:09:00,
2013-02-06 13:14:00,43.7,40.4,29.88,East,88,3.0,9.0,88,0.00,,,0.00,WeatherCatV1.13B119,2013-02-06 21:14:00,
2013-02-06 13:19:00,43.7,40.4,29.88,East,82,3.0,14.0,88,0.00,,,0.00,WeatherCatV1.13B119,2013-02-06 21:19:00,
2013-02-06 13:24:00,43.6,40.6,29.87,ESE,108,5.0,16.0,89,0.00,,,0.00,WeatherCatV1.13B119,2013-02-06 21:24:00,
2013-02-06 13:29:00,43.4,40.7,29.87,SE,135,5.0,7.0,90,0.00,,,0.00,WeatherCatV1.13B119,2013-02-06 21:29:00,
2013-02-06 13:34:00,43.3,40.6,29.87,SE,131,8.0,16.0,90,0.00,,,0.00,WeatherCatV1.13B119,2013-02-06 21:34:00,
2013-02-06 13:39:00,43.3,40.6,29.87,ESE,118,6.0,8.0,90,0.00,,,0.01,WeatherCatV1.13B119,2013-02-06 21:39:00,
2013-02-06 13:44:00,43.2,40.5,29.86,East,98,9.0,12.0,90,0.00,,,0.01,WeatherCatV1.13B119,2013-02-06 21:44:00,
2013-02-06 13:49:00,43.1,40.7,29.87,SE,134,10.0,14.0,91,0.04,,,0.02,WeatherCatV1.13B119,2013-02-06 21:49:00,
2013-02-06 13:54:00,43.1,40.7,29.86,East,97,3.0,11.0,91,0.04,,,0.02,WeatherCatV1.13B119,2013-02-06 21:54:00,
2013-02-06 13:59:00,43.1,40.4,29.86,East,96,4.0,16.0,90,0.04,,,0.02,WeatherCatV1.13B119,2013-02-06 21:59:00,
2013-02-06 14:04:00,43.1,40.7,29.86,ENE,77,7.0,13.0,91,0.03,,,0.02,WeatherCatV1.13B119,2013-02-06 22:04:00,
2013-02-06 14:09:00,43.1,40.7,29.86,ESE,104,5.0,16.0,91,0.03,,,0.02,WeatherCatV1.13B119,2013-02-06 22:09:00,
2013-02-06 14:14:00,42.9,40.5,29.86,ESE,120,6.0,9.0,91,0.05,,,0.03,WeatherCatV1.13B119,2013-02-06 22:14:00,
2013-02-06 14:19:00,42.9,40.5,29.86,SE,133,8.0,12.0,91,0.05,,,0.03,WeatherCatV1.13B119,2013-02-06 22:19:00,
2013-02-06 14:24:00,42.9,40.5,29.86,SSE,160,10.0,15.0,91,0.05,,,0.03,WeatherCatV1.13B119,2013-02-06 22:24:00,
2013-02-06 14:29:00,42.9,40.7,29.86,SE,135,7.0,12.0,92,0.04,,,0.04,WeatherCatV1.13B119,2013-02-06 22:29:00,
2013-02-06 14:34:00,42.9,40.5,29.86,ESE,106,7.0,12.0,91,0.06,,,0.05,WeatherCatV1.13B119,2013-02-06 22:34:00,
2013-02-06 14:39:00,42.9,40.5,29.86,East,101,15.0,15.0,91,0.06,,,0.05,WeatherCatV1.13B119,2013-02-06 22:39:00,
2013-02-06 14:44:00,42.9,40.7,29.86,ESE,108,2.0,9.0,92,0.05,,,0.05,WeatherCatV1.13B119,2013-02-06 22:44:00,
2013-02-06 14:49:00,42.8,40.6,29.85,ESE,115,7.0,11.0,92,0.05,,,0.05,WeatherCatV1.13B119,2013-02-06 22:49:00,
2013-02-06 14:54:00,42.8,40.6,29.86,SE,124,8.0,12.0,92,0.05,,,0.05,WeatherCatV1.13B119,2013-02-06 22:54:00,
2013-02-06 14:59:00,42.7,40.3,29.86,ESE,120,5.0,8.0,91,0.03,,,0.05,WeatherCatV1.13B119,2013-02-06 22:59:00,
2013-02-06 15:04:00,42.7,40.3,29.86,ESE,113,5.0,8.0,91,0.03,,,0.06,WeatherCatV1.13B119,2013-02-06 23:04:00,
2013-02-06 15:09:00,42.7,40.5,29.85,SSE,149,10.0,10.0,92,0.03,,,0.06,WeatherCatV1.13B119,2013-02-06 23:09:00,
2013-02-06 15:14:00,42.6,40.2,29.85,SE,144,2.0,9.0,91,0.03,,,0.06,WeatherCatV1.13B119,2013-02-06 23:14:00,
2013-02-06 15:19:00,42.5,40.1,29.85,East,86,8.0,10.0,91,0.03,,,0.07,WeatherCatV1.13B119,2013-02-06 23:19:00,
2013-02-06 15:24:00,42.4,40.2,29.85,SE,129,5.0,7.0,92,0.03,,,0.07,WeatherCatV1.13B119,2013-02-06 23:24:00,
2013-02-06 15:29:00,42.5,40.3,29.85,ENE,61,2.0,9.0,92,0.03,,,0.07,WeatherCatV1.13B119,2013-02-06 23:29:00,
2013-02-06 15:34:00,42.5,40.3,29.85,ESE,113,12.0,14.0,92,0.03,,,0.08,WeatherCatV1.13B119,2013-02-06 23:34:00,
2013-02-06 15:39:00,42.5,40.3,29.84,ENE,68,5.0,12.0,92,0.03,,,0.08,WeatherCatV1.13B119,2013-02-06 23:39:00,
2013-02-06 15:44:00,42.5,40.3,29.84,ENE,75,4.0,9.0,92,0.03,,,0.08,WeatherCatV1.13B119,2013-02-06 23:44:00,
2013-02-06 15:49:00,42.5,40.3,29.84,ESE,121,5.0,12.0,92,0.00,,,0.08,WeatherCatV1.13B119,2013-02-06 23:49:00,
2013-02-06 15:54:00,42.6,40.2,29.84,East,87,5.0,18.0,91,0.00,,,0.08,WeatherCatV1.13B119,2013-02-06 23:54:00,
2013-02-06 15:59:00,42.5,40.1,29.84,ENE,78,6.0,11.0,91,0.00,,,0.08,WeatherCatV1.13B119,2013-02-06 23:59:00,
2013-02-06 16:04:00,42.5,40.1,29.84,East,83,5.0,14.0,91,0.00,,,0.08,WeatherCatV1.13B119,2013-02-07 00:04:00,
2013-02-06 16:09:00,42.5,40.1,29.83,East,84,4.0,17.0,91,0.00,,,0.08,WeatherCatV1.13B119,2013-02-07 00:09:00,
2013-02-06 16:14:00,42.7,40.0,29.83,SE,145,10.0,16.0,90,0.00,,,0.08,WeatherCatV1.13B119,2013-02-07 00:14:00,
2013-02-06 16:19:00,42.7,40.0,29.83,ESE,115,4.0,10.0,90,0.00,,,0.08,WeatherCatV1.13B119,2013-02-07 00:19:00,
2013-02-06 16:24:00,42.7,40.0,29.83,ENE,63,3.0,13.0,90,0.00,,,0.08,WeatherCatV1.13B119,2013-02-07 00:24:00,
2013-02-06 16:29:00,42.7,40.0,29.83,ENE,78,13.0,15.0,90,0.00,,,0.08,WeatherCatV1.13B119,2013-02-07 00:29:00,
2013-02-06 16:34:00,42.7,40.0,29.83,ENE,65,5.0,12.0,90,0.00,,,0.08,WeatherCatV1.13B119,2013-02-07 00:34:00,
2013-02-06 16:39:00,42.7,40.0,29.83,ENE,60,5.0,12.0,90,0.00,,,0.08,WeatherCatV1.13B119,2013-02-07 00:39:00,
2013-02-06 16:44:00,42.8,39.8,29.82,ESE,104,8.0,13.0,89,0.00,,,0.09,WeatherCatV1.13B119,2013-02-07 00:44:00,
2013-02-06 16:49:00,42.8,40.1,29.83,ESE,102,9.0,14.0,90,0.00,,,0.09,WeatherCatV1.13B119,2013-02-07 00:49:00,
2013-02-06 16:54:00,42.8,40.1,29.82,SE,131,8.0,10.0,90,0.00,,,0.09,WeatherCatV1.13B119,2013-02-07 00:54:00,
2013-02-06 16:59:00,42.8,40.4,29.82,ESE,110,4.0,11.0,91,0.00,,,0.09,WeatherCatV1.13B119,2013-02-07 00:59:00,
2013-02-06 17:04:00,42.8,40.4,29.82,ENE,78,5.0,11.0,91,0.00,,,0.09,WeatherCatV1.13B119,2013-02-07 01:04:00,
2013-02-06 17:09:00,42.9,40.5,29.81,SE,135,10.0,21.0,91,0.00,,,0.09,WeatherCatV1.13B119,2013-02-07 01:09:00,
2013-02-06 17:14:00,42.9,40.5,29.81,SE,132,5.0,7.0,91,0.00,,,0.09,WeatherCatV1.13B119,2013-02-07 01:14:00,
2013-02-06 17:19:00,43.0,40.3,29.81,ESE,120,6.0,17.0,90,0.00,,,0.09,WeatherCatV1.13B119,2013-02-07 01:19:00,
2013-02-06 17:24:00,43.0,40.3,29.81,East,100,7.0,13.0,90,0.00,,,0.09,WeatherCatV1.13B119,2013-02-07 01:24:00,
2013-02-06 17:29:00,43.1,40.1,29.80,SE,133,7.0,15.0,89,0.00,,,0.09,WeatherCatV1.13B119,2013-02-07 01:29:00,
2013-02-06 17:34:00,43.1,40.1,29.80,ENE,68,9.0,11.0,89,0.00,,,0.09,WeatherCatV1.13B119,2013-02-07 01:34:00,
2013-02-06 17:39:00,43.2,39.9,29.80,ENE,66,12.0,18.0,88,0.00,,,0.09,WeatherCatV1.13B119,2013-02-07 01:39:00,
2013-02-06 17:44:00,43.2,39.9,29.80,ESE,105,5.0,19.0,88,0.00,,,0.09,WeatherCatV1.13B119,2013-02-07 01:44:00,
2013-02-06 17:49:00,43.1,39.8,29.80,ENE,67,5.0,15.0,88,0.00,,,0.09,WeatherCatV1.13B119,2013-02-07 01:49:00,
2013-02-06 17:54:00,43.2,39.9,29.79,SE,125,8.0,11.0,88,0.00,,,0.09,WeatherCatV1.13B119,2013-02-07 01:54:00,
2013-02-06 17:59:00,43.3,40.0,29.79,ESE,122,8.0,11.0,88,0.00,,,0.09,WeatherCatV1.13B119,2013-02-07 01:59:00,
2013-02-06 18:04:00,43.3,40.0,29.79,ESE,104,4.0,18.0,88,0.00,,,0.09,WeatherCatV1.13B119,2013-02-07 02:04:00,
2013-02-06 18:09:00,43.3,40.0,29.79,SE,125,9.0,12.0,88,0.00,,,0.09,WeatherCatV1.13B119,2013-02-07 02:09:00,
2013-02-06 18:14:00,43.4,40.1,29.78,SE,143,8.0,18.0,88,0.00,,,0.09,WeatherCatV1.13B119,2013-02-07 02:14:00,
2013-02-06 18:19:00,43.4,40.1,29.78,ENE,78,18.0,18.0,88,0.00,,,0.10,WeatherCatV1.13B119,2013-02-07 02:19:00,
2013-02-06 18:24:00,43.4,40.1,29.78,ESE,116,3.0,11.0,88,0.00,,,0.10,WeatherCatV1.13B119,2013-02-07 02:24:00,
2013-02-06 18:29:00,43.3,40.0,29.78,SSE,151,12.0,25.0,88,0.00,,,0.10,WeatherCatV1.13B119,2013-02-07 02:29:00,
2013-02-06 18:34:00,43.4,39.8,29.78,East,79,4.0,16.0,87,0.00,,,0.10,WeatherCatV1.13B119,2013-02-07 02:34:00,
2013-02-06 18:39:00,43.4,40.1,29.78,SE,128,9.0,17.0,88,0.00,,,0.10,WeatherCatV1.13B119,2013-02-07 02:39:00,
2013-02-06 18:44:00,43.4,40.1,29.77,ESE,103,17.0,20.0,88,0.00,,,0.10,WeatherCatV1.13B119,2013-02-07 02:44:00,
2013-02-06 18:49:00,43.3,40.0,29.77,SE,134,11.0,17.0,88,0.00,,,0.10,WeatherCatV1.13B119,2013-02-07 02:49:00,
2013-02-06 18:54:00,43.2,39.9,29.77,ESE,122,9.0,15.0,88,0.00,,,0.10,WeatherCatV1.13B119,2013-02-07 02:54:00,
2013-02-06 18:59:00,43.2,40.2,29.77,ESE,106,9.0,9.0,89,0.00,,,0.10,WeatherCatV1.13B119,2013-02-07 02:59:00,
2013-02-06 19:04:00,43.1,40.1,29.77,East,101,5.0,16.0,89,0.00,,,0.10,WeatherCatV1.13B119,2013-02-07 03:04:00,
2013-02-06 19:09:00,43.0,40.0,29.76,ENE,74,22.0,22.0,89,0.00,,,0.10,WeatherCatV1.13B119,2013-02-07 03:09:00,
2013-02-06 19:14:00,43.2,39.9,29.76,East,79,5.0,19.0,88,0.00,,,0.10,WeatherCatV1.13B119,2013-02-07 03:14:00,
2013-02-06 19:19:00,43.3,40.0,29.76,East,91,6.0,15.0,88,0.00,,,0.10,WeatherCatV1.13B119,2013-02-07 03:19:00,
2013-02-06 19:24:00,43.3,40.0,29.75,ENE,74,12.0,17.0,88,0.00,,,0.10,WeatherCatV1.13B119,2013-02-07 03:24:00,
2013-02-06 19:29:00,43.4,40.1,29.76,ENE,77,16.0,19.0,88,0.00,,,0.10,WeatherCatV1.13B119,2013-02-07 03:29:00,
2013-02-06 19:34:00,43.5,39.9,29.76,ESE,117,12.0,19.0,87,0.00,,,0.10,WeatherCatV1.13B119,2013-02-07 03:34:00,
2013-02-06 19:39:00,43.5,39.9,29.76,ESE,112,13.0,18.0,87,0.00,,,0.11,WeatherCatV1.13B119,2013-02-07 03:39:00,
2013-02-06 19:44:00,43.4,39.8,29.75,ENE,77,8.0,11.0,87,0.00,,,0.11,WeatherCatV1.13B119,2013-02-07 03:44:00,
2013-02-06 19:49:00,43.4,40.1,29.75,ESE,119,8.0,19.0,88,0.00,,,0.11,WeatherCatV1.13B119,2013-02-07 03:49:00,
2013-02-06 19:54:00,43.4,39.8,29.75,East,86,8.0,20.0,87,0.00,,,0.11,WeatherCatV1.13B119,2013-02-07 03:54:00,
2013-02-06 19:59:00,43.3,40.0,29.75,ESE,110,3.0,17.0,88,0.00,,,0.11,WeatherCatV1.13B119,2013-02-07 03:59:00,
2013-02-06 20:04:00,43.3,39.7,29.74,ENE,62,8.0,18.0,87,0.00,,,0.11,WeatherCatV1.13B119,2013-02-07 04:04:00,
2013-02-06 20:09:00,43.3,39.7,29.75,ENE,78,6.0,16.0,87,0.00,,,0.11,WeatherCatV1.13B119,2013-02-07 04:09:00,
2013-02-06 20:14:00,43.3,39.7,29.75,East,98,11.0,16.0,87,0.00,,,0.11,WeatherCatV1.13B119,2013-02-07 04:14:00,
2013-02-06 20:19:00,43.4,39.5,29.74,ESE,106,7.0,11.0,86,0.00,,,0.11,WeatherCatV1.13B119,2013-02-07 04:19:00,
2013-02-06 20:24:00,43.4,39.5,29.74,East,84,7.0,15.0,86,0.00,,,0.11,WeatherCatV1.13B119,2013-02-07 04:24:00,
2013-02-06 20:29:00,43.5,39.6,29.74,East,81,8.0,15.0,86,0.00,,,0.11,WeatherCatV1.13B119,2013-02-07 04:29:00,
2013-02-06 20:34:00,43.6,39.4,29.74,South,181,2.0,10.0,85,0.00,,,0.11,WeatherCatV1.13B119,2013-02-07 04:34:00,
2013-02-06 20:39:00,43.6,39.4,29.74,SE,125,8.0,15.0,85,0.00,,,0.11,WeatherCatV1.13B119,2013-02-07 04:39:00,
2013-02-06 20:44:00,43.8,39.3,29.74,East,79,10.0,18.0,84,0.00,,,0.11,WeatherCatV1.13B119,2013-02-07 04:44:00,
2013-02-06 20:49:00,43.9,39.4,29.73,ENE,70,12.0,14.0,84,0.00,,,0.11,WeatherCatV1.13B119,2013-02-07 04:49:00,
2013-02-06 20:54:00,44.0,39.5,29.73,East,98,14.0,14.0,84,0.00,,,0.11,WeatherCatV1.13B119,2013-02-07 04:54:00,
2013-02-06 20:59:00,44.1,39.3,29.73,ESE,102,14.0,19.0,83,0.00,,,0.11,WeatherCatV1.13B119,2013-02-07 04:59:00,
2013-02-06 21:00:00,44.1,39.3,29.73,ESE,106,8.0,19.0,83,0.00,,,0.11,WeatherCatV1.13B119,2013-02-07 05:00:00,
2013-02-06 21:05:00,44.3,39.2,29.72,East,85,10.0,22.0,82,0.00,,,0.11,WeatherCatV1.13B119,2013-02-07 05:05:00,
2013-02-06 21:10:00,44.4,39.3,29.72,East,94,5.0,12.0,82,0.00,,,0.11,WeatherCatV1.13B119,2013-02-07 05:10:00,
2013-02-06 21:15:00,44.6,39.1,29.72,East,95,9.0,18.0,81,0.00,,,0.11,WeatherCatV1.13B119,2013-02-07 05:15:00,
2013-02-06 21:20:00,44.9,39.1,29.72,ENE,74,9.0,23.0,80,0.00,,,0.11,WeatherCatV1.13B119,2013-02-07 05:20:00,
2013-02-06 21:25:00,45.1,39.0,29.72,South,176,3.0,13.0,79,0.00,,,0.11,WeatherCatV1.13B119,2013-02-07 05:25:00,
2013-02-06 21:30:00,45.2,39.1,29.71,SE,129,3.0,7.0,79,0.00,,,0.11,WeatherCatV1.13B119,2013-02-07 05:30:00,
2013-02-06 21:35:00,45.2,39.1,29.72,SE,125,11.0,12.0,79,0.00,,,0.11,WeatherCatV1.13B119,2013-02-07 05:35:00,
2013-02-06 21:40:00,45.2,39.1,29.71,SSE,147,3.0,15.0,79,0.00,,,0.11,WeatherCatV1.13B119,2013-02-07 05:40:00,
2013-02-06 21:45:00,45.4,38.9,29.71,East,96,10.0,20.0,78,0.00,,,0.11,WeatherCatV1.13B119,2013-02-07 05:45:00,
2013-02-06 21:50:00,45.5,39.0,29.71,SE,140,9.0,15.0,78,0.00,,,0.11,WeatherCatV1.13B119,2013-02-07 05:50:00,
2013-02-06 21:55:00,45.7,38.9,29.71,SE,139,5.0,15.0,77,0.00,,,0.11,WeatherCatV1.13B119,2013-02-07 05:55:00,
2013-02-06 22:00:00,45.7,38.9,29.71,ESE,104,6.0,14.0,77,0.00,,,0.11,WeatherCatV1.13B119,2013-02-07 06:00:00,
2013-02-06 22:05:00,45.8,39.0,29.70,SE,137,7.0,18.0,77,0.00,,,0.11,WeatherCatV1.13B119,2013-02-07 06:05:00,
2013-02-06 22:10:00,45.8,38.7,29.70,SE,134,1.0,7.0,76,0.00,,,0.11,WeatherCatV1.13B119,2013-02-07 06:10:00,
2013-02-06 22:15:00,45.7,38.9,29.70,SSE,155,4.0,9.0,77,0.00,,,0.11,WeatherCatV1.13B119,2013-02-07 06:15:00,
2013-02-06 22:20:00,45.8,38.7,29.69,SSW,193,11.0,18.0,76,0.00,,,0.11,WeatherCatV1.13B119,2013-02-07 06:20:00,
2013-02-06 22:25:00,46.0,38.9,29.69,ENE,76,7.0,22.0,76,0.00,,,0.11,WeatherCatV1.13B119,2013-02-07 06:25:00,
2013-02-06 22:30:00,46.2,38.7,29.69,East,81,7.0,15.0,75,0.00,,,0.11,WeatherCatV1.13B119,2013-02-07 06:30:00,
2013-02-06 22:35:00,46.3,38.8,29.69,ENE,74,7.0,16.0,75,0.00,,,0.11,WeatherCatV1.13B119,2013-02-07 06:35:00,
2013-02-06 22:40:00,46.3,38.8,29.68,SSE,164,12.0,13.0,75,0.00,,,0.11,WeatherCatV1.13B119,2013-02-07 06:40:00,
2013-02-06 22:45:00,46.5,39.0,29.69,SSE,151,3.0,18.0,75,0.00,,,0.11,WeatherCatV1.13B119,2013-02-07 06:45:00,
2013-02-06 22:50:00,46.6,38.8,29.68,ESE,118,9.0,14.0,74,0.00,,,0.11,WeatherCatV1.13B119,2013-02-07 06:50:00,
2013-02-06 22:55:00,46.7,38.9,29.68,ESE,120,7.0,17.0,74,0.00,,,0.11,WeatherCatV1.13B119,2013-02-07 06:55:00,
2013-02-06 23:00:00,46.9,38.7,29.67,SE,133,8.0,18.0,73,0.00,,,0.11,WeatherCatV1.13B119,2013-02-07 07:00:00,
2013-02-06 23:05:00,46.9,38.7,29.67,ESE,123,9.0,11.0,73,0.00,,,0.11,WeatherCatV1.13B119,2013-02-07 07:05:00,
2013-02-06 23:10:00,47.0,38.4,29.67,ENE,74,5.0,14.0,72,0.00,,,0.11,WeatherCatV1.13B119,2013-02-07 07:10:00,
2013-02-06 23:15:00,46.9,38.7,29.67,East,81,4.0,8.0,73,0.00,,,0.11,WeatherCatV1.13B119,2013-02-07 07:15:00,
2013-02-06 23:20:00,46.9,38.4,29.67,East,101,11.0,21.0,72,0.00,,,0.11,WeatherCatV1.13B119,2013-02-07 07:20:00,
2013-02-06 23:25:00,47.2,38.3,29.66,ESE,122,9.0,11.0,71,0.00,,,0.11,WeatherCatV1.13B119,2013-02-07 07:25:00,
2013-02-06 23:30:00,47.2,37.9,29.66,SE,136,10.0,24.0,70,0.00,,,0.11,WeatherCatV1.13B119,2013-02-07 07:30:00,
2013-02-06 23:35:00,47.4,38.1,29.65,East,87,5.0,15.0,70,0.00,,,0.11,WeatherCatV1.13B119,2013-02-07 07:35:00,
2013-02-06 23:40:00,47.3,38.0,29.66,SE,134,7.0,21.0,70,0.00,,,0.11,WeatherCatV1.13B119,2013-02-07 07:40:00,
2013-02-06 23:45:00,47.4,38.1,29.65,ENE,68,10.0,12.0,70,0.00,,,0.11,WeatherCatV1.13B119,2013-02-07 07:45:00,
2013-02-06 23:50:00,47.5,38.2,29.65,ENE,58,10.0,20.0,70,0.00,,,0.11,WeatherCatV1.13B119,2013-02-07 07:50:00,
2013-02-06 23:55:00,47.6,37.9,29.65,ESE,103,8.0,13.0,69,0.00,,,0.11,WeatherCatV1.13B119,2013-02-07 07:55:00,